Wind_Speed
9 9 9 10 10 11 12 13 15 16 18 19 19 21 21 21 21 20 21 22 22 21 21 21 21 22 22 22 22 22 21 21 22 22 23 23 23 23 24 24 25 26 26 25 26 26 28 29 29 29 28 27 27 27 26 26 27 28 30 31 32 33 34
7 9 8 8 10 10 9 9 10 13 15 17 19 20 20 19 20 20 20 21 20 20 20 20 21 21 21 20 20 20 21 21 22 22 23 24 24 24 24 24 26 26 25 25 26 27 28 29 29 28 27 27 27 27 27 27 28 30 31 31 32 33 35
10 10 8 9 9 7 7 9 12 15 16 17 19 20 20 19 20 20 20 20 21 21 21 21 21 21 20 20 20 20 20 21 22 23 24 24 25 25 24 25 25 26 26 25 26 27 29 29 28 28 28 28 28 27 27 28 30 31 31 32 33 34 35
11 12 10 12 12 10 11 13 16 17 18 18 19 20 20 20 21 20 20 20 22 22 22 22 22 21 20 20 20 20 21 22 23 23 24 25 25 25 25 25 26 26 26 26 26 27 28 29 29 29 29 29 28 28 29 30 30 31 32 32 33 34 35
13 13 12 14 15 14 15 16 17 18 18 19 19 20 21 21 21 20 20 21 22 23 23 23 23 22 21 21 22 22 22 23 24 24 25 25 26 25 25 26 27 27 27 27 26 27 28 28 29 29 29 29 29 29 30 31 31 31 32 33 34 35 36
16 16 16 17 16 16 17 17 17 17 17 18 18 19 20 20 20 20 20 20 21 22 24 23 23 23 23 23 23 24 24 24 25 25 25 26 26 26 26 27 28 29 29 28 27 28 29 29 29 30 30 30 30 30 31 31 31 32 33 34 35 37 38
18 18 19 18 17 17 18 18 17 17 18 18 18 18 18 18 18 19 20 20 21 22 24 24 24 24 24 25 25 26 26 26 26 26 26 26 26 27 27 28 29 29 29 29 29 30 30 29 30 31 31 31 31 32 31 31 32 33 34 35 36 38 38
19 21 20 18 17 19 19 19 18 18 19 18 18 17 17 17 18 19 19 21 22 23 24 25 25 25 26 26 26 27 29 28 28 27 27 27 27 28 28 29 29 29 29 29 30 31 30 30 30 31 32 32 33 33 32 33 33 34 35 36 37 38 39
21 21 19 17 18 18 18 18 18 18 19 18 16 16 16 17 17 18 19 21 22 23 24 25 27 27 27 26 26 27 30 30 28 28 29 29 28 29 29 29 29 28 28 29 30 31 30 31 31 32 33 33 33 33 33 33 34 35 36 37 38 38 38
24 21 19 18 17 18 18 17 16 16 16 16 14 14 15 16 17 18 20 22 23 25 25 26 27 28 27 27 27 28 30 30 29 30 31 30 29 30 30 30 30 28 28 30 32 32 32 32 32 33 34 33 33 33 33 34 35 36 37 37 38 39 39
23 21 21 19 19 19 19 18 17 16 16 14 13 14 14 15 17 19 21 23 24 26 27 27 27 28 28 28 29 29 29 30 31 31 32 31 30 31 31 30 29 27 27 31 34 33 33 33 33 34 34 34 34 33 33 35 36 36 37 38 38 39 40
20 21 22 21 21 21 20 18 17 15 14 13 13 14 15 16 18 20 22 24 26 27 29 29 28 29 30 29 29 29 30 31 32 33 33 32 31 32 32 30 28 27 29 33 34 34 33 34 34 34 35 35 34 34 35 36 36 36 37 38 39 40 41
20 22 23 22 22 21 19 17 15 13 13 15 16 17 18 19 21 22 23 25 27 29 30 31 30 31 32 31 30 30 31 32 33 34 35 34 33 33 32 29 27 29 32 33 33 33 34 34 35 35 36 36 35 35 35 36 37 39 41 42 42 41 41
21 23 23 23 23 22 20 19 18 18 19 20 21 22 22 23 24 25 27 27 28 30 32 33 33 32 32 33 32 32 32 33 34 35 35 35 34 34 31 30 29 31 34 33 33 34 35 35 35 36 36 37 36 36 37 38 39 40 40 39 38 38 39
22 23 24 25 26 26 25 23 21 20 21 23 24 24 24 25 27 28 29 29 30 31 33 35 35 35 34 34 34 33 33 33 35 36 36 35 35 33 32 31 32 33 34 33 34 35 35 36 36 36 37 37 38 38 38 37 38 38 38 37 37 39 42
24 25 26 27 28 28 27 26 24 22 22 24 25 25 25 26 28 29 30 31 31 33 35 36 37 37 37 36 36 35 35 35 35 36 36 34 34 33 33 33 34 34 33 33 34 35 36 36 36 36 37 37 37 37 38 40 40 40 41 40 39 42 44
26 28 29 29 29 29 28 28 27 26 26 27 28 27 26 26 27 29 31 33 34 36 37 39 39 39 39 38 38 39 37 35 35 36 35 33 33 35 35 34 34 35 34 34 35 35 36 37 38 38 38 36 35 35 39 43 43 42 42 39 36 39 43
29 31 30 30 30 30 30 30 29 29 29 30 31 31 30 29 30 32 35 37 38 39 39 40 41 41 41 42 43 42 39 36 36 35 34 33 34 35 35 34 35 36 36 35 35 37 38 39 39 40 38 35 33 34 38 43 43 42 39 35 34 38 43
30 31 31 32 32 31 30 30 31 31 31 33 35 35 35 34 34 36 39 40 40 41 41 41 41 43 45 46 46 44 39 36 35 34 33 32 34 35 34 33 34 35 36 36 37 38 40 40 41 41 39 36 35 36 39 41 41 40 37 36 39 42 43
31 32 34 34 33 31 31 32 33 33 34 36 37 36 34 33 34 36 38 40 41 42 42 42 44 46 46 45 45 44 40 34 32 33 33 32 34 35 34 32 34 36 37 37 38 40 41 41 42 41 40 39 39 40 40 40 40 40 39 40 43 44 42
32 34 36 35 33 32 34 35 35 35 37 38 36 33 32 32 34 36 39 42 43 43 43 44 46 47 43 39 40 43 41 36 33 34 33 34 35 34 33 33 35 37 37 38 40 41 42 42 42 42 42 42 41 41 42 43 43 43 43 44 44 44 43
35 36 36 34 33 34 37 37 38 38 38 37 36 34 35 38 41 42 43 44 44 43 43 45 47 49 45 39 39 42 44 44 41 37 34 33 33 32 32 34 36 37 38 39 41 42 42 43 43 43 44 43 42 42 45 47 47 46 46 47 47 46 45
40 39 36 34 34 37 40 41 40 39 38 39 38 39 42 47 49 47 45 44 44 43 44 46 50 53 48 40 38 40 43 44 44 39 35 34 33 32 34 36 37 37 39 40 41 42 42 43 43 44 44 43 43 45 47 50 51 50 49 49 50 49 47
43 42 40 39 39 40 42 42 40 40 41 42 43 45 49 53 53 50 47 46 46 45 45 46 49 49 46 41 41 42 42 42 41 37 34 34 34 35 38 38 38 39 40 40 41 42 42 42 42 42 42 43 45 47 49 52 53 54 52 51 51 52 50
41 42 44 44 44 43 43 42 41 43 44 45 46 48 51 53 53 50 48 48 49 47 46 44 42 40 41 46 49 50 50 50 48 42 36 33 34 36 38 39 40 40 40 40 40 41 41 42 42 41 42 43 46 49 51 53 54 54 53 52 52 52 52
39 41 44 46 45 44 43 42 44 45 46 47 48 48 49 49 49 47 47 49 50 48 46 43 41 39 39 42 44 45 45 45 46 42 35 30 30 34 38 40 41 40 39 39 40 40 41 41 42 41 42 45 48 51 53 54 54 54 53 52 52 53 52
42 43 45 46 45 44 45 46 47 48 48 48 48 47 47 46 45 45 47 49 50 49 46 42 40 39 37 37 40 42 40 37 34 30 26 24 27 32 37 41 42 41 39 38 39 40 40 41 42 43 45 48 50 52 53 54 54 53 53 53 52 52 52
46 47 48 48 48 49 49 50 51 51 50 49 48 47 47 46 45 46 48 49 49 49 46 41 38 38 38 39 44 48 44 33 23 19 19 21 26 30 35 39 40 39 37 37 39 40 40 41 44 46 49 51 52 52 53 53 53 52 52 52 52 52 53
50 51 51 51 52 53 52 52 52 52 51 51 49 49 48 47 46 47 48 48 48 47 45 42 40 37 37 38 43 47 39 26 18 16 19 20 24 30 34 37 37 36 36 37 39 40 41 44 47 49 51 52 52 52 52 52 52 51 51 51 52 53 54
53 54 55 55 56 56 54 53 52 51 51 51 51 49 48 47 47 47 46 46 46 45 44 43 42 39 37 36 40 44 37 27 22 24 26 26 30 32 33 34 36 36 37 38 39 40 43 46 48 49 50 51 51 52 52 51 51 51 50 51 53 53 53
54 54 54 54 55 55 54 53 51 48 46 45 44 44 44 45 45 45 44 44 44 44 44 43 42 41 39 34 38 42 37 33 32 32 33 35 37 34 32 35 37 38 38 38 39 42 46 48 48 49 51 52 52 52 52 51 50 51 51 52 53 52 51
52 52 52 53 52 52 51 48 45 41 38 37 38 39 40 41 42 42 42 42 42 42 42 42 41 39 38 34 38 41 35 34 37 38 38 40 39 36 37 38 38 38 38 38 40 45 48 49 50 52 52 52 52 51 50 50 50 51 52 52 51 49 48
61 62 59 53 47 43 40 37 36 35 35 36 37 38 38 39 40 41 41 40 40 41 40 39 38 37 35 32 35 38 37 40 42 44 45 45 44 42 42 39 36 35 36 39 44 48 49 50 52 52 51 50 50 49 49 50 51 51 51 50 48 45 41
56 52 46 40 36 33 33 33 34 36 37 38 38 38 38 38 39 39 39 39 39 39 38 38 38 36 33 31 33 37 42 45 46 45 45 44 42 40 37 35 34 37 41 45 49 50 50 50 50 49 49 49 49 48 49 50 50 51 50 47 44 40 37
33 32 31 32 33 33 34 35 37 38 38 39 39 38 38 37 37 37 37 37 38 39 39 39 39 38 37 37 38 40 44 46 46 43 40 37 35 34 34 37 41 46 48 50 50 49 49 48 47 47 48 48 48 48 49 49 49 48 46 43 40 37 35
28 29 30 32 33 33 34 35 36 37 37 37 38 38 38 37 37 37 37 37 38 39 39 40 41 40 39 38 40 43 46 46 42 39 37 36 36 39 42 46 49 49 48 47 47 46 45 45 45 46 47 47 48 48 48 49 48 45 42 40 37 36 36
29 29 29 30 31 32 33 35 36 37 37 37 38 38 38 38 38 38 38 38 39 39 40 42 43 41 38 37 41 45 47 45 40 38 40 42 45 48 50 50 49 47 46 45 44 44 45 45 45 46 46 47 48 48 48 48 45 42 39 37 37 37 38
28 29 29 30 31 32 33 34 36 37 38 38 38 39 39 39 39 39 40 40 40 41 42 43 41 37 35 37 40 42 43 43 42 44 47 49 51 52 52 51 49 47 45 44 44 45 46 46 45 46 47 47 47 48 47 45 41 39 37 37 37 39 39
Wind_Direction
304 302 293 294 296 293 286 279 277 275 270 269 268 268 269 270 271 273 276 279 281 284 285 285 286 287 289 289 286 283 283 286 289 290 292 293 295 297 299 299 298 298 299 301 302 303 303 305 307 309 310 311 311 310 309 308 308 309 310 310 311 312 314
288 288 287 297 300 291 282 282 293 293 285 279 274 272 270 267 267 270 273 277 281 284 285 286 286 288 291 291 287 284 285 288 290 291 294 296 297 297 297 297 296 298 300 302 302 301 302 304 307 309 310 310 310 309 310 310 310 309 309 309 310 311 313
275 278 285 298 304 293 281 297 310 308 302 294 284 279 275 270 269 271 273 278 282 284 285 286 288 289 292 291 289 287 289 292 292 292 293 296 298 297 295 295 296 298 300 300 300 301 302 304 307 309 309 309 309 310 311 310 309 308 308 309 310 311 313
265 268 280 291 296 296 294 302 308 307 304 297 290 285 281 277 274 274 276 279 282 284 285 287 289 291 292 290 289 288 290 293 294 293 293 295 296 296 296 296 297 298 298 297 298 300 302 304 307 308 308 309 310 311 310 309 308 307 308 309 310 312 315
261 267 280 285 291 298 301 304 306 306 303 297 292 289 284 280 277 276 277 277 279 282 284 287 290 291 291 289 288 287 287 290 292 293 293 294 295 296 297 297 297 296 295 295 297 300 303 306 307 307 307 308 309 310 309 308 307 308 309 310 311 313 316
264 270 278 283 291 299 302 304 305 306 304 299 292 288 285 283 280 277 276 275 276 279 283 287 289 290 289 288 288 288 288 289 290 292 293 293 294 296 297 296 294 294 294 294 296 300 304 306 306 306 306 307 308 307 308 308 309 310 310 312 313 315 316
262 267 274 282 292 299 302 303 305 306 304 297 289 285 283 281 279 276 276 277 277 278 282 285 286 286 286 287 288 289 290 290 291 292 292 292 293 294 294 293 292 293 292 293 296 299 302 305 306 305 305 306 307 308 309 310 310 310 311 312 314 314 315
260 265 273 285 295 301 304 304 304 306 304 295 286 284 283 280 278 277 277 278 280 281 282 284 284 283 283 284 287 288 289 290 292 292 291 291 292 291 291 291 291 292 291 292 296 300 302 304 304 304 304 306 308 310 312 312 311 311 311 312 312 312 314
265 268 276 287 297 302 303 301 299 300 301 294 284 280 281 280 279 278 278 280 284 285 284 283 282 281 281 283 284 284 285 289 291 290 289 289 290 290 289 289 290 290 290 292 296 300 301 302 303 303 304 307 310 311 311 311 310 310 309 309 310 311 313
268 274 281 290 300 305 305 301 297 297 296 287 277 274 277 278 278 280 283 285 288 288 287 286 283 282 283 285 284 282 283 287 289 288 287 288 288 288 287 286 288 287 288 292 296 298 300 301 302 303 305 308 310 310 309 308 307 307 307 308 309 310 311
270 280 288 295 302 307 309 305 297 296 295 283 273 275 278 281 284 286 289 290 292 292 292 291 288 284 282 281 281 281 280 283 286 286 285 286 286 285 284 285 285 283 286 292 294 296 298 300 302 304 307 309 309 308 308 306 305 305 307 308 309 309 310
279 286 289 294 302 310 317 314 304 297 293 283 280 283 286 289 291 293 294 296 296 296 295 294 291 286 281 278 279 279 279 281 284 283 283 284 284 282 283 285 285 284 288 292 293 295 297 299 302 306 307 307 307 308 307 305 306 308 309 309 308 308 309
285 286 287 292 300 309 319 320 312 303 294 289 290 292 294 294 293 293 297 300 300 299 298 296 293 288 283 282 281 279 279 281 282 281 282 283 281 280 282 284 286 288 290 291 292 295 297 300 304 306 306 307 307 307 306 306 308 310 309 308 307 306 307
281 284 289 294 298 305 312 311 306 303 301 301 301 300 299 298 296 295 297 300 301 300 298 296 293 289 284 282 281 280 279 280 280 279 279 280 279 279 281 284 286 288 288 289 292 295 298 302 305 306 305 306 307 307 307 310 313 315 315 315 314 313 312
279 284 291 295 298 303 307 305 302 300 301 303 303 301 298 296 295 296 296 298 299 299 297 295 292 289 285 282 280 278 277 275 275 276 276 277 278 279 281 284 284 285 286 288 292 295 299 303 304 304 304 305 306 308 311 316 319 321 321 320 319 319 318
281 287 292 296 299 301 300 301 303 301 300 303 304 301 296 293 294 297 298 298 299 299 296 294 291 289 286 283 280 276 272 269 270 273 274 276 278 279 281 281 281 283 287 289 293 296 299 301 301 302 303 305 307 309 314 318 320 321 319 317 318 320 321
286 290 291 292 294 295 296 299 303 301 301 306 310 307 301 296 295 298 300 299 297 296 294 292 291 288 285 281 277 273 269 266 267 270 273 275 276 278 280 281 282 285 288 291 294 297 299 299 300 301 303 305 305 309 316 319 321 321 318 317 321 325 325
286 287 287 287 288 291 294 297 298 298 300 307 311 308 303 296 293 295 298 297 295 294 293 292 290 286 282 278 275 272 268 266 267 268 270 272 274 278 282 283 284 287 289 292 296 298 298 298 299 301 303 302 302 309 316 319 320 320 317 316 321 326 325
279 280 281 282 286 289 291 292 292 295 301 307 307 303 298 293 290 291 293 292 292 293 294 293 290 285 279 273 268 265 262 262 265 268 269 271 273 279 283 284 285 287 290 294 297 296 296 297 299 300 301 300 300 306 314 317 320 321 319 316 317 320 321
271 274 276 281 286 289 288 288 291 296 302 305 303 301 297 293 292 291 290 290 292 294 294 293 289 285 279 271 264 261 258 261 268 271 273 276 277 281 284 285 286 288 291 294 295 294 295 297 298 299 300 299 300 304 311 318 322 322 320 318 316 319 321
266 271 276 282 285 284 283 286 291 297 299 300 301 302 301 300 299 296 293 292 293 293 293 291 289 286 281 272 266 263 259 262 273 277 277 277 278 281 285 285 286 289 291 293 293 292 295 297 298 300 301 300 301 305 311 318 323 323 322 320 319 321 322
270 274 277 279 280 279 281 285 291 294 295 297 300 301 301 304 303 299 296 294 293 293 292 290 288 286 280 272 266 260 255 259 271 278 276 275 277 281 284 285 286 288 290 291 291 292 296 298 300 301 303 304 305 307 312 318 322 323 322 320 320 321 321
274 276 276 275 275 278 281 287 292 294 295 297 299 298 300 303 303 300 296 293 293 292 291 291 290 285 278 270 264 258 254 260 269 272 270 272 277 282 284 284 285 286 287 288 290 293 296 299 302 304 306 308 308 308 312 317 319 320 320 319 319 319 319
274 275 275 274 274 277 282 287 290 291 294 296 296 296 298 300 301 297 292 290 290 289 290 295 294 285 274 266 261 255 253 260 266 266 266 273 281 285 286 284 282 282 284 287 290 293 296 300 303 305 307 308 308 309 311 314 316 317 317 317 317 316 316
274 273 273 273 274 277 281 285 286 288 293 295 295 295 295 296 297 293 287 287 288 289 291 296 298 289 278 271 267 260 256 260 265 266 269 279 288 289 286 281 279 280 283 287 290 294 297 300 303 304 305 307 308 308 310 312 312 313 314 315 315 315 315
272 273 273 274 274 276 279 281 283 288 292 294 294 294 294 294 292 288 285 287 289 291 292 294 296 294 287 278 271 262 258 265 272 272 273 281 289 288 283 279 278 280 284 287 291 294 297 301 304 305 305 307 308 308 308 309 310 310 312 313 314 313 312
273 275 275 276 276 277 277 279 282 286 289 290 292 293 292 290 287 284 286 288 289 290 292 293 292 292 289 279 264 258 264 278 281 274 271 281 287 286 283 280 278 280 284 287 290 294 298 301 303 304 305 307 307 307 307 308 309 310 311 312 311 311 311
270 271 272 273 275 276 276 278 280 283 284 287 289 289 287 285 283 283 285 286 287 289 291 292 290 289 290 284 267 260 266 272 265 258 272 289 295 293 288 282 279 281 284 287 291 294 297 299 301 303 304 305 306 306 307 308 309 309 310 310 310 310 312
263 265 267 270 272 274 276 277 279 280 282 283 284 282 280 280 279 280 282 282 284 286 288 291 292 291 294 290 272 262 260 252 244 266 288 301 308 304 294 287 284 283 284 287 290 293 296 299 301 301 301 302 304 306 307 307 307 308 308 309 310 312 313
261 263 267 270 272 274 276 277 278 280 282 281 278 274 272 274 276 278 279 280 282 285 286 290 294 297 301 292 270 259 254 246 257 288 301 306 312 308 298 290 286 283 284 285 287 291 296 299 300 299 300 303 305 306 306 306 306 308 308 309 311 313 313
263 265 267 270 273 274 275 277 278 279 279 278 275 271 271 272 274 276 277 278 281 284 286 290 295 301 306 293 264 254 253 252 262 283 297 304 307 302 294 290 285 281 282 284 286 291 297 300 301 302 303 304 305 305 305 305 306 308 308 310 311 311 311
266 268 270 271 271 272 273 274 274 273 271 271 271 271 271 272 273 274 276 279 282 284 288 293 297 303 306 287 257 250 261 271 273 278 287 296 298 294 292 290 284 279 280 283 287 294 298 301 303 303 303 302 302 303 304 305 306 308 308 309 310 309 310
270 272 272 271 269 268 268 269 268 267 267 268 269 270 270 272 273 275 278 280 283 285 288 291 294 299 301 285 260 256 273 285 282 279 283 290 293 293 291 287 280 277 281 287 293 297 300 301 301 300 299 300 300 302 304 305 306 307 307 307 307 307 309
269 268 266 265 264 264 265 266 265 266 267 268 269 271 272 273 275 277 279 281 283 285 286 288 291 293 292 285 272 268 275 280 279 279 284 289 289 288 285 281 280 285 290 294 297 298 298 298 297 297 298 300 301 302 304 305 305 305 305 305 305 305 306
263 261 261 263 264 265 266 266 266 267 267 269 271 272 273 275 276 278 280 282 284 285 287 289 291 293 292 288 282 277 276 275 275 278 284 286 284 283 284 286 289 293 294 295 295 295 294 295 296 298 300 301 302 303 304 304 304 303 303 304 304 304 304
264 264 264 264 264 264 265 265 267 268 268 270 271 272 273 275 277 279 280 282 284 287 289 290 292 294 293 287 279 274 272 272 275 281 285 285 284 286 288 290 292 292 292 293 293 294 295 298 299 300 301 302 303 303 303 303 303 302 302 302 302 303 303
265 264 263 263 263 264 265 266 267 269 269 270 271 272 273 275 277 279 281 283 285 288 289 290 292 292 288 279 273 271 271 273 279 284 284 284 287 290 290 291 292 293 294 295 296 297 299 300 301 301 302 302 303 303 303 303 302 301 301 301 302 303 303
263 263 263 263 264 265 266 268 269 271 272 273 274 275 276 278 280 281 282 284 286 287 288 290 292 289 282 277 275 274 274 277 282 285 285 288 291 292 292 292 292 294 296 297 297 298 299 300 301 301 302 302 303 303 303 302 301 300 300 300 301 303 304
Height
5908 5907 5906 5906 5905 5905 5904 5904 5904 5905 5905 5905 5905 5904 5903 5903 5903 5903 5904 5903 5903 5903 5903 5902 5902 5901 5900 5899 5898 5898 5897 5897 5896 5895 5893 5892 5891 5890 5889 5888 5887 5886 5884 5883 5882 5881 5880 5879 5878 5877 5875 5874 5872 5871 5870 5868 5867 5866 5865 5863 5862 5860 5858
5907 5906 5905 5905 5904 5904 5903 5903 5903 5903 5902 5902 5902 5901 5901 5902 5902 5902 5902 5901 5901 5901 5900 5900 5899 5898 5897 5896 5895 5895 5895 5894 5893 5892 5891 5890 5889 5888 5887 5886 5884 5883 5882 5881 5879 5878 5877 5876 5875 5874 5872 5871 5870 5869 5867 5866 5864 5863 5862 5860 5859 5857 5855
5905 5904 5904 5904 5903 5903 5903 5902 5902 5901 5900 5899 5899 5899 5899 5899 5900 5900 5900 5899 5899 5898 5898 5897 5896 5896 5895 5893 5893 5892 5892 5892 5891 5889 5888 5887 5886 5885 5884 5883 5882 5880 5879 5878 5877 5875 5874 5873 5872 5871 5870 5868 5867 5866 5864 5863 5862 5860 5859 5857 5855 5853 5851
5903 5903 5903 5902 5902 5902 5902 5901 5900 5899 5898 5897 5896 5896 5896 5896 5897 5897 5897 5897 5896 5895 5895 5894 5893 5893 5892 5891 5890 5890 5889 5889 5888 5886 5885 5884 5883 5882 5881 5880 5879 5878 5876 5875 5874 5873 5871 5870 5869 5868 5867 5865 5864 5863 5862 5860 5859 5857 5856 5854 5851 5849 5847
5901 5901 5901 5901 5901 5900 5900 5900 5899 5897 5896 5895 5894 5893 5893 5894 5894 5894 5895 5894 5894 5893 5892 5891 5890 5890 5889 5888 5887 5886 5886 5885 5884 5883 5882 5881 5880 5879 5878 5877 5876 5874 5873 5872 5871 5870 5869 5867 5866 5865 5863 5862 5861 5860 5859 5857 5856 5854 5852 5850 5848 5845 5843
5898 5899 5899 5899 5898 5898 5898 5898 5897 5896 5894 5893 5892 5891 5891 5891 5891 5892 5892 5891 5891 5890 5889 5888 5887 5887 5885 5885 5884 5883 5883 5882 5881 5880 5879 5878 5877 5876 5875 5873 5872 5871 5870 5869 5868 5867 5866 5864 5863 5861 5860 5859 5858 5857 5855 5854 5852 5850 5848 5845 5843 5841 5840
5896 5896 5896 5896 5896 5896 5896 5895 5895 5893 5892 5891 5890 5890 5890 5889 5889 5889 5888 5888 5888 5887 5886 5885 5884 5883 5882 5881 5880 5879 5879 5878 5877 5877 5876 5874 5873 5872 5871 5870 5869 5868 5867 5866 5865 5864 5863 5861 5860 5858 5857 5856 5854 5853 5852 5850 5849 5846 5844 5842 5840 5838 5836
5893 5894 5894 5894 5893 5893 5893 5892 5892 5891 5890 5889 5888 5888 5887 5887 5886 5886 5886 5885 5885 5884 5883 5882 5881 5880 5879 5878 5877 5876 5875 5874 5874 5873 5872 5871 5870 5869 5868 5866 5865 5864 5863 5863 5862 5861 5859 5858 5856 5855 5853 5852 5851 5849 5848 5847 5845 5842 5840 5839 5837 5835 5832
5890 5891 5891 5891 5891 5891 5891 5890 5889 5888 5887 5887 5886 5886 5885 5885 5885 5884 5884 5883 5882 5881 5881 5879 5878 5877 5876 5875 5874 5872 5871 5871 5871 5870 5869 5868 5867 5866 5864 5863 5862 5861 5860 5859 5858 5857 5856 5854 5852 5851 5850 5848 5847 5846 5845 5843 5841 5839 5837 5836 5834 5831 5829
5887 5887 5887 5888 5889 5888 5888 5887 5886 5886 5885 5885 5885 5885 5884 5884 5883 5883 5882 5881 5880 5879 5877 5876 5875 5874 5874 5872 5870 5869 5868 5868 5867 5866 5865 5865 5864 5862 5861 5860 5858 5857 5856 5856 5855 5854 5852 5850 5849 5847 5846 5845 5844 5843 5841 5840 5838 5836 5834 5832 5830 5827 5825
5883 5883 5883 5884 5885 5885 5884 5884 5883 5883 5883 5883 5883 5884 5883 5883 5882 5881 5880 5879 5878 5876 5874 5873 5872 5870 5869 5868 5866 5866 5865 5864 5863 5863 5862 5861 5860 5859 5857 5856 5855 5854 5853 5852 5851 5850 5849 5847 5845 5844 5843 5842 5841 5840 5838 5836 5835 5833 5831 5828 5826 5823 5821
5880 5880 5880 5881 5881 5882 5881 5881 5880 5881 5881 5881 5882 5882 5881 5881 5880 5879 5878 5877 5875 5873 5872 5870 5869 5867 5865 5864 5863 5863 5861 5861 5860 5859 5858 5857 5856 5854 5853 5852 5851 5851 5850 5849 5847 5846 5845 5843 5842 5841 5839 5839 5838 5837 5835 5833 5831 5829 5827 5824 5821 5819 5816
5876 5877 5877 5878 5878 5878 5878 5878 5878 5879 5879 5879 5879 5879 5879 5878 5877 5876 5875 5874 5872 5871 5869 5867 5866 5864 5861 5860 5860 5859 5858 5857 5856 5855 5854 5853 5852 5850 5849 5849 5848 5847 5847 5845 5844 5842 5841 5839 5839 5838 5837 5836 5835 5834 5832 5829 5827 5824 5821 5819 5816 5814 5811
5873 5873 5874 5874 5874 5875 5875 5876 5876 5876 5876 5876 5876 5875 5875 5874 5874 5873 5872 5871 5869 5868 5866 5864 5862 5861 5859 5857 5856 5855 5854 5852 5851 5850 5849 5848 5847 5846 5846 5846 5845 5844 5842 5841 5840 5838 5837 5837 5836 5835 5834 5833 5831 5829 5827 5825 5822 5819 5816 5813 5811 5809 5806
5870 5871 5871 5871 5871 5871 5872 5873 5873 5873 5873 5873 5872 5872 5871 5871 5871 5870 5869 5868 5866 5864 5863 5861 5859 5857 5856 5854 5852 5851 5849 5847 5846 5845 5844 5844 5844 5843 5843 5842 5840 5839 5838 5837 5836 5835 5834 5833 5833 5832 5830 5828 5826 5824 5822 5820 5817 5814 5812 5809 5806 5804 5801
5867 5867 5868 5868 5868 5868 5869 5869 5870 5870 5870 5870 5869 5869 5868 5868 5867 5866 5865 5864 5862 5860 5859 5857 5855 5853 5852 5850 5849 5846 5843 5841 5841 5840 5840 5841 5840 5839 5839 5838 5837 5836 5835 5834 5833 5832 5831 5830 5829 5828 5826 5824 5822 5819 5816 5814 5812 5810 5808 5805 5802 5799 5796
5864 5864 5865 5865 5865 5865 5866 5866 5866 5867 5867 5866 5866 5865 5865 5864 5863 5862 5861 5860 5858 5857 5855 5852 5851 5849 5847 5845 5843 5839 5836 5835 5835 5835 5836 5837 5836 5836 5835 5835 5834 5833 5833 5831 5830 5829 5827 5826 5824 5823 5822 5820 5818 5815 5812 5809 5807 5805 5803 5800 5798 5796 5792
5861 5861 5861 5862 5862 5863 5862 5862 5862 5863 5863 5862 5861 5861 5860 5860 5859 5858 5857 5855 5854 5852 5850 5848 5846 5844 5842 5839 5835 5832 5831 5830 5830 5831 5832 5832 5832 5832 5832 5832 5831 5831 5829 5827 5826 5825 5823 5822 5820 5818 5817 5816 5814 5812 5809 5805 5803 5801 5799 5796 5794 5792 5789
5857 5857 5858 5858 5859 5859 5859 5859 5859 5859 5859 5858 5857 5856 5856 5855 5854 5853 5852 5850 5849 5847 5845 5844 5841 5838 5834 5830 5826 5825 5825 5825 5827 5827 5827 5827 5827 5828 5829 5828 5828 5827 5825 5823 5821 5820 5818 5817 5815 5814 5812 5811 5810 5808 5805 5803 5800 5797 5795 5792 5790 5788 5785
5853 5854 5854 5855 5855 5855 5855 5855 5855 5855 5854 5853 5853 5852 5851 5850 5850 5849 5847 5845 5844 5843 5841 5839 5835 5832 5830 5828 5826 5825 5825 5824 5825 5824 5823 5823 5823 5824 5825 5824 5824 5822 5820 5818 5816 5815 5814 5812 5811 5809 5808 5806 5805 5803 5800 5798 5796 5793 5790 5788 5785 5782 5780
5849 5850 5850 5851 5851 5851 5851 5851 5851 5851 5850 5849 5848 5847 5846 5845 5845 5843 5842 5840 5839 5838 5836 5834 5830 5827 5828 5829 5828 5826 5825 5824 5821 5820 5819 5819 5818 5820 5821 5820 5819 5818 5815 5813 5811 5810 5809 5808 5806 5805 5803 5801 5799 5797 5794 5792 5790 5787 5785 5782 5780 5777 5775
5846 5846 5847 5847 5847 5847 5846 5846 5846 5846 5845 5845 5844 5843 5842 5841 5840 5838 5837 5835 5834 5834 5832 5829 5825 5823 5823 5824 5822 5820 5820 5819 5816 5814 5815 5815 5814 5816 5817 5816 5815 5813 5810 5808 5807 5806 5805 5803 5802 5800 5798 5796 5794 5791 5788 5786 5783 5782 5779 5776 5774 5771 5769
5842 5842 5842 5843 5843 5842 5841 5841 5840 5840 5839 5839 5838 5837 5837 5836 5835 5834 5832 5831 5830 5829 5827 5824 5820 5817 5816 5816 5815 5814 5815 5815 5812 5810 5810 5810 5811 5813 5812 5811 5809 5807 5805 5803 5802 5801 5800 5799 5797 5794 5792 5790 5788 5785 5783 5779 5777 5775 5774 5771 5768 5766 5764
5838 5838 5838 5837 5838 5837 5836 5836 5836 5835 5834 5833 5832 5832 5831 5830 5830 5829 5828 5826 5824 5823 5822 5820 5816 5814 5812 5810 5809 5809 5810 5809 5807 5806 5807 5808 5809 5809 5807 5805 5803 5801 5800 5799 5797 5796 5796 5794 5792 5789 5787 5785 5782 5780 5778 5775 5772 5770 5768 5766 5763 5761 5758
5833 5833 5833 5833 5833 5832 5832 5832 5831 5830 5830 5829 5828 5827 5826 5825 5824 5823 5822 5821 5819 5818 5818 5817 5814 5813 5810 5805 5802 5802 5803 5802 5802 5803 5805 5806 5806 5804 5802 5799 5798 5796 5795 5794 5793 5792 5791 5789 5787 5785 5782 5780 5778 5775 5773 5771 5768 5765 5763 5761 5758 5756 5753
5828 5828 5828 5828 5828 5828 5828 5828 5827 5826 5826 5825 5823 5822 5821 5820 5819 5818 5816 5815 5814 5813 5813 5813 5811 5809 5805 5801 5798 5796 5795 5796 5799 5800 5802 5803 5801 5798 5796 5794 5793 5792 5791 5790 5789 5787 5785 5783 5781 5779 5777 5775 5774 5771 5769 5767 5763 5760 5758 5756 5753 5751 5748
5823 5823 5822 5822 5823 5824 5823 5823 5822 5822 5821 5820 5819 5818 5817 5816 5814 5813 5812 5810 5808 5807 5807 5808 5806 5803 5801 5799 5797 5793 5792 5794 5796 5796 5797 5797 5794 5792 5791 5789 5788 5787 5786 5785 5783 5782 5780 5778 5776 5774 5772 5770 5769 5766 5763 5761 5758 5755 5752 5751 5749 5747 5744
5818 5817 5817 5818 5818 5818 5818 5818 5818 5818 5817 5816 5814 5813 5812 5811 5810 5809 5807 5806 5804 5803 5802 5802 5801 5798 5796 5794 5791 5789 5789 5791 5791 5790 5790 5789 5788 5787 5786 5784 5783 5782 5780 5779 5777 5776 5775 5774 5772 5770 5768 5765 5763 5761 5758 5754 5752 5750 5748 5746 5744 5741 5738
5812 5813 5813 5813 5813 5813 5813 5813 5813 5812 5812 5811 5810 5808 5807 5806 5806 5804 5803 5801 5799 5798 5798 5796 5794 5793 5791 5788 5786 5785 5786 5786 5784 5783 5782 5781 5781 5781 5780 5778 5777 5775 5774 5773 5772 5772 5771 5769 5768 5766 5764 5761 5758 5755 5752 5750 5748 5746 5744 5741 5738 5735 5732
5808 5808 5807 5807 5807 5807 5807 5807 5806 5806 5805 5804 5803 5802 5801 5801 5800 5799 5798 5796 5795 5794 5793 5791 5789 5787 5785 5782 5781 5781 5781 5780 5778 5777 5776 5775 5774 5774 5774 5772 5770 5769 5769 5768 5768 5768 5767 5765 5763 5761 5758 5755 5753 5750 5748 5745 5743 5741 5738 5736 5733 5730 5726
5801 5802 5801 5801 5801 5800 5800 5800 5800 5800 5799 5797 5796 5795 5795 5795 5794 5793 5792 5791 5790 5788 5787 5785 5783 5780 5778 5776 5776 5776 5777 5777 5774 5772 5771 5770 5770 5769 5768 5766 5765 5764 5764 5764 5764 5763 5762 5760 5758 5755 5752 5749 5747 5744 5742 5740 5737 5735 5732 5729 5727 5724 5721
5795 5795 5795 5795 5794 5794 5794 5794 5794 5794 5793 5792 5791 5790 5790 5789 5788 5787 5786 5786 5785 5783 5781 5779 5777 5774 5773 5771 5771 5772 5774 5774 5771 5769 5767 5765 5764 5763 5761 5761 5760 5760 5760 5760 5759 5758 5756 5753 5751 5748 5746 5744 5741 5739 5736 5733 5731 5728 5725 5723 5721 5718 5716
5788 5788 5789 5789 5788 5788 5788 5788 5788 5788 5788 5786 5786 5785 5785 5784 5783 5781 5781 5780 5779 5778 5776 5774 5773 5771 5769 5768 5768 5769 5770 5769 5766 5764 5762 5760 5759 5757 5756 5756 5756 5756 5756 5755 5754 5751 5749 5747 5745 5743 5741 5739 5736 5733 5730 5727 5724 5722 5720 5718 5716 5714 5712
5782 5782 5783 5783 5783 5783 5782 5782 5782 5782 5782 5781 5780 5780 5779 5778 5777 5776 5776 5775 5774 5773 5771 5770 5769 5768 5766 5765 5765 5765 5765 5763 5761 5759 5758 5756 5755 5753 5753 5752 5752 5752 5751 5750 5747 5745 5743 5741 5739 5737 5734 5732 5729 5727 5724 5721 5718 5716 5714 5713 5711 5709 5707
5777 5777 5777 5777 5777 5777 5777 5777 5776 5776 5776 5776 5775 5775 5774 5773 5772 5771 5771 5770 5768 5767 5765 5764 5762 5761 5760 5759 5759 5759 5758 5756 5755 5754 5752 5751 5750 5750 5749 5748 5747 5746 5745 5743 5741 5739 5737 5735 5733 5730 5727 5725 5722 5720 5718 5715 5713 5711 5708 5707 5705 5703 5701
5772 5772 5772 5771 5771 5772 5771 5771 5771 5771 5771 5771 5770 5770 5769 5768 5767 5767 5766 5765 5763 5762 5760 5758 5757 5755 5754 5753 5753 5752 5751 5749 5748 5747 5747 5746 5745 5745 5743 5742 5741 5740 5738 5736 5734 5732 5730 5728 5726 5723 5721 5718 5716 5714 5712 5710 5707 5705 5703 5700 5699 5697 5695
5767 5767 5766 5766 5766 5766 5766 5766 5765 5765 5765 5765 5765 5764 5764 5763 5763 5762 5761 5760 5759 5757 5755 5754 5752 5750 5748 5748 5747 5746 5745 5744 5742 5741 5741 5740 5739 5738 5736 5735 5733 5732 5730 5729 5727 5725 5723 5721 5719 5717 5715 5713 5710 5708 5706 5703 5701 5699 5696 5694 5693 5691 5690
5762 5763 5762 5762 5762 5761 5761 5761 5760 5759 5759 5759 5759 5759 5758 5758 5757 5756 5755 5754 5754 5753 5751 5750 5747 5745 5743 5743 5742 5741 5740 5739 5737 5736 5735 5733 5732 5731 5729 5727 5726 5724 5723 5722 5720 5718 5716 5715 5713 5711 5709 5707 5705 5702 5699 5697 5695 5693 5690 5689 5687 5686 5684